When you browse on this site, cookies collect data to enhance your experience and personalize the content and advertising you see.
Visit our Privacy Policy to learn more. By continuing to use the site, you agree to this use of cookies and data.
  • In Latvia
  • List of Countries
  • For 7 days
  • Water Temperature
  • Weather Map
  • Weather Widgets
  • user-avatar
    Login

    Hourly Weather Ulanskoe

    Today, 28 May, Thursday

    Time Temperature Precipitation Wind Pressure Humidity
    00:00 +8°C° 0 mm 3 mps 728 mmHg 67%
    01:00 +7°C° 0 mm 3 mps 728 mmHg 71%
    02:00 +6°C° 0 mm 2 mps 728 mmHg 74%
    03:00 +7°C° 0 mm 2 mps 728 mmHg 73%
    04:00 +7°C° 0 mm 2 mps 728 mmHg 72%
    05:00 +7°C° 0 mm 2 mps 728 mmHg 71%
    06:00 +9°C° 0 mm 2 mps 729 mmHg 65%
    07:00 +11°C° 0 mm 3 mps 729 mmHg 58%
    08:00 +13°C° 0 mm 4 mps 729 mmHg 52%
    09:00 +14°C° 0 mm 4 mps 729 mmHg 48%
    10:00 +17°C° 0 mm 4 mps 728 mmHg 44%
    11:00 +19°C° 0 mm 5 mps 728 mmHg 39%
    12:00 +19°C° 0 mm 5 mps 728 mmHg 40%
    13:00 +20°C° 0 mm 6 mps 727 mmHg 41%
    14:00 +20°C° 0 mm 6 mps 727 mmHg 42%
    15:00 +19°C° 0 mm 6 mps 727 mmHg 45%
    16:00 +19°C° 0 mm 6 mps 727 mmHg 47%
    17:00 +17°C° 0 mm 6 mps 727 mmHg 49%
    18:00 +15°C° 0 mm 6 mps 727 mmHg 55%
    19:00 +13°C° 0 mm 5 mps 727 mmHg 61%
    20:00 +11°C° 0 mm 4 mps 727 mmHg 67%
    21:00 +10°C° 0 mm 4 mps 727 mmHg 70%
    22:00 +9°C° 0 mm 3 mps 727 mmHg 73%
    23:00 +8°C° 0 mm 3 mps 727 mmHg 76%

    Tomorrow, 29 May, Friday

    Time Temperature Precipitation Wind Pressure Humidity
    00:00 +8°C° 0 mm 2 mps 727 mmHg 78%
    01:00 +7°C° 0 mm 2 mps 726 mmHg 80%
    02:00 +6°C° 0 mm 2 mps 726 mmHg 81%
    03:00 +8°C° 0 mm 1 mps 726 mmHg 79%
    04:00 +9°C° 0 mm 1 mps 726 mmHg 77%
    05:00 +9°C° 0 mm 1 mps 726 mmHg 75%
    06:00 +10°C° 0 mm 2 mps 726 mmHg 68%
    07:00 +12°C° 0 mm 3 mps 726 mmHg 61%
    08:00 +14°C° 0 mm 3 mps 726 mmHg 53%
    09:00 +17°C° 0 mm 3 mps 726 mmHg 48%
    10:00 +18°C° 0 mm 4 mps 725 mmHg 43%
    11:00 +20°C° 0 mm 4 mps 725 mmHg 38%
    12:00 +21°C° 0 mm 4 mps 725 mmHg 37%
    13:00 +21°C° 0 mm 4 mps 725 mmHg 37%
    14:00 +22°C° 0 mm 5 mps 725 mmHg 37%
    15:00 +22°C° 0 mm 5 mps 724 mmHg 39%
    16:00 +21°C° 0 mm 5 mps 724 mmHg 42%
    17:00 +20°C° 0 mm 5 mps 724 mmHg 44%
    18:00 +18°C° 0 mm 4 mps 724 mmHg 51%
    19:00 +16°C° 0 mm 3 mps 724 mmHg 57%
    20:00 +14°C° 0 mm 2 mps 724 mmHg 64%
    21:00 +13°C° 0 mm 1 mps 724 mmHg 64%
    22:00 +12°C° 0 mm 1 mps 723 mmHg 64%
    23:00 +12°C° 0 mm 1 mps 723 mmHg 64%

    Day after tomorrow, 30 May, Saturday

    Time Temperature Precipitation Wind Pressure Humidity
    00:00 +12°C° 0 mm 1 mps 723 mmHg 64%
    01:00 +11°C° 0 mm 1 mps 723 mmHg 63%
    02:00 +11°C° 0 mm 1 mps 723 mmHg 63%
    03:00 +12°C° 0 mm 1 mps 723 mmHg 63%
    04:00 +13°C° 0 mm 1 mps 723 mmHg 63%
    05:00 +13°C° 0 mm 0 mps 723 mmHg 63%
    06:00 +16°C° 0 mm 1 mps 723 mmHg 58%
    07:00 +19°C° 0 mm 1 mps 723 mmHg 53%
    08:00 +21°C° 0 mm 1 mps 724 mmHg 48%
    09:00 +22°C° 0 mm 1 mps 724 mmHg 44%
    10:00 +24°C° 0 mm 1 mps 724 mmHg 41%
    11:00 +25°C° 0 mm 2 mps 724 mmHg 37%
    12:00 +26°C° 0 mm 3 mps 724 mmHg 36%
    13:00 +27°C° 0 mm 4 mps 724 mmHg 35%
    14:00 +28°C° 0 mm 4 mps 724 mmHg 34%
    15:00 +27°C° 0 mm 5 mps 724 mmHg 36%
    16:00 +26°C° 0 mm 5 mps 724 mmHg 38%
    17:00 +25°C° 0 mm 5 mps 724 mmHg 39%
    18:00 +21°C° 0 mm 4 mps 724 mmHg 46%
    19:00 +19°C° 0 mm 3 mps 724 mmHg 53%
    20:00 +16°C° 0 mm 1 mps 724 mmHg 59%
    21:00 +15°C° 0 mm 1 mps 725 mmHg 62%
    22:00 +14°C° 0 mm 1 mps 725 mmHg 65%
    23:00 +13°C° 0 mm 0 mps 725 mmHg 68%

    31 May, Sunday

    Time Temperature Precipitation Wind Pressure Humidity
    00:00 +13°C° 0 mm 1 mps 725 mmHg 69%
    01:00 +13°C° 0 mm 1 mps 725 mmHg 69%
    02:00 +13°C° 0 mm 1 mps 724 mmHg 70%
    03:00 +13°C° 0 mm 1 mps 725 mmHg 69%
    04:00 +14°C° 0 mm 1 mps 725 mmHg 68%
    05:00 +15°C° 0 mm 1 mps 725 mmHg 67%
    06:00 +18°C° 0 mm 1 mps 725 mmHg 59%
    07:00 +20°C° 0 mm 1 mps 725 mmHg 52%
    08:00 +22°C° 0 mm 1 mps 725 mmHg 45%
    09:00 +23°C° 0 mm 2 mps 725 mmHg 41%
    10:00 +24°C° 0 mm 2 mps 725 mmHg 37%
    11:00 +26°C° 0 mm 3 mps 725 mmHg 33%
    12:00 +26°C° 0 mm 3 mps 724 mmHg 32%
    13:00 +27°C° 0 mm 3 mps 724 mmHg 31%
    14:00 +27°C° 0 mm 3 mps 724 mmHg 30%
    15:00 +27°C° 0 mm 2 mps 723 mmHg 31%
    16:00 +27°C° 0 mm 1 mps 723 mmHg 31%
    17:00 +27°C° 0 mm 1 mps 723 mmHg 31%
    18:00 +25°C° 0 mm 2 mps 722 mmHg 37%
    19:00 +23°C° 0 mm 2 mps 722 mmHg 43%
    20:00 +19°C° 0 mm 3 mps 722 mmHg 49%
    21:00 +19°C° 0 mm 3 mps 722 mmHg 48%
    22:00 +18°C° 0 mm 3 mps 722 mmHg 48%
    23:00 +18°C° 0 mm 3 mps 721 mmHg 48%

    1 June, Monday

    Time Temperature Precipitation Wind Pressure Humidity
    00:00 +18°C° 0 mm 3 mps 721 mmHg 48%
    01:00 +18°C° 0 mm 3 mps 721 mmHg 49%
    02:00 +17°C° 0 mm 4 mps 720 mmHg 50%
    03:00 +18°C° 0 mm 4 mps 720 mmHg 51%
    04:00 +18°C° 0 mm 4 mps 720 mmHg 52%
    05:00 +19°C° 0 mm 4 mps 720 mmHg 52%
    06:00 +21°C° 0 mm 5 mps 720 mmHg 47%
    07:00 +25°C° 0 mm 5 mps 720 mmHg 43%
    08:00 +27°C° 0 mm 6 mps 720 mmHg 38%
    09:00 +29°C° 0 mm 6 mps 721 mmHg 37%
    10:00 +30°C° 0 mm 5 mps 721 mmHg 35%
    11:00 +32°C° 0 mm 5 mps 721 mmHg 34%
    12:00 +32°C° 0 mm 5 mps 721 mmHg 33%
    13:00 +33°C° 0 mm 4 mps 721 mmHg 31%
    14:00 +33°C° 0 mm 3 mps 721 mmHg 30%
    15:00 +33°C° 0 mm 3 mps 720 mmHg 31%
    16:00 +32°C° 0 mm 2 mps 720 mmHg 32%
    17:00 +32°C° 0 mm 2 mps 720 mmHg 33%
    18:00 +28°C° 0.6 mm 2 mps 720 mmHg 48%
    19:00 +24°C° 0.6 mm 3 mps 719 mmHg 63%
    20:00 +20°C° 0.6 mm 3 mps 719 mmHg 78%
    21:00 +20°C° 0.2 mm 3 mps 719 mmHg 76%
    22:00 +20°C° 0.2 mm 2 mps 719 mmHg 75%
    23:00 +21°C° 0.2 mm 1 mps 719 mmHg 74%

    2 June, Tuesday

    Time Temperature Precipitation Wind Pressure Humidity
    00:00 +19°C° 0.3 mm 2 mps 719 mmHg 74%
    01:00 +19°C° 0.3 mm 2 mps 719 mmHg 75%
    02:00 +19°C° 0.3 mm 2 mps 719 mmHg 75%
    03:00 +19°C° 0.2 mm 2 mps 719 mmHg 75%
    04:00 +20°C° 0.2 mm 2 mps 719 mmHg 75%
    05:00 +20°C° 0.2 mm 2 mps 718 mmHg 75%
    06:00 +22°C° 0.1 mm 3 mps 718 mmHg 67%
    07:00 +25°C° 0.1 mm 3 mps 718 mmHg 59%
    08:00 +27°C° 0.1 mm 4 mps 718 mmHg 52%
    09:00 +30°C° 0 mm 5 mps 718 mmHg 42%
    10:00 +33°C° 0 mm 6 mps 718 mmHg 32%
    11:00 +35°C° 0 mm 7 mps 718 mmHg 22%
    12:00 +34°C° 0 mm 6 mps 717 mmHg 26%
    13:00 +33°C° 0 mm 5 mps 717 mmHg 29%
    14:00 +30°C° 0 mm 3 mps 716 mmHg 33%
    15:00 +28°C° 0.5 mm 3 mps 716 mmHg 45%
    16:00 +25°C° 0.5 mm 3 mps 717 mmHg 58%
    17:00 +23°C° 0.5 mm 2 mps 717 mmHg 70%
    18:00 +20°C° 0.2 mm 2 mps 717 mmHg 75%
    19:00 +19°C° 0.2 mm 2 mps 718 mmHg 79%
    20:00 +19°C° 0.2 mm 1 mps 718 mmHg 84%
    21:00 +18°C° 0 mm 1 mps 719 mmHg 85%
    22:00 +18°C° 0 mm 1 mps 719 mmHg 86%
    23:00 +16°C° 0 mm 1 mps 719 mmHg 87%
    Show more